Location: Albuquerque Trailhead
(34.7934°N, 106.3736°W)
Time: 00:40:48
(UTC+00:00)

Cosmos 1538 Rocket - Pass Details

Date: 20 June 2021
Orbit: 753 x 791 km, 74.0° (Epoch: 27 July)

Event Time Altitude Azimuth Distance (km) Brightness Sun altitude
Exits shadow 11:08:45 - 207° (SSW) 2,616 6.2 -8.3°
Reaches altitude 10° 11:09:28 10° 208° (SSW) 2,343 6.0 -8.2°
Maximum altitude 11:14:45 62° 289° (WNW) 883 4.2 -7.4°
Drops below altitude 10° 11:20:02 10° 10° (N) 2,340 7.2 -6.5°
Sets 11:22:27 0° 14° (NNE) 3,266 8.1 -6.1°
